Terminal Aerodrome Forecast
Issued by NWS Wilmington, NC

Home | Current Version | Previous Version | Text Only | Print | Product List | Glossary On
Versions: 1 2 3 4 5 6 7 8 9 10 11 12 13 14 15 16
242
FTUS42 KILM 261406 AAB
TAFILM
TAF AMD
KILM 261406Z 2614/2712 36011G18KT P6SM OVC014
     FM261500 35015KT P6SM OVC025
     FM261800 34013KT P6SM VCSH BKN030
     FM262300 34012G21KT P6SM BKN250
     FM270900 33011G18KT P6SM SCT025=

USA.gov is the U.S. government's official web portal to all federal, state and local government web resources and services.